STARLINK-37482, 68850

Orbit data source: Space-Track

STARLINK-37482, 68850 is a payload satellite owned by SpaceX/Seattle (US) in SSO that was launched on Sun, 26 Apr 2026 UTC via an FALCON 9 launch vehicle from the Air Force Western Test Range (AFWTR). Payload-class satellites include a variety of spacecraft equipped with specific instruments for various scientific and technological missions. These include communications satellites like Starlink; space stations such as the ISS; scientific satellites like the Hubble; Earth observation satellites from companies like Planet Labs, Umbra, and HawkEye 360; GPS; miniature CubeSats for education and research; and military/defense satellites.

Loading next visibility...
Identifier
68850, 2026-094M
Orbit
SSO
Country
Flag of USUS
Related business
Manufacturer
SpaceX/Seattle
Mission
Operational spacecraft
Bus & Motor
STARLINK V2MO, Unknown motor
Mass
575 kg wet, ~530 kg dry
Launch date (UTC)
2026-04-26 (2 months ago)
Launch vehicle
FALCON 9
Launch site
Air Force Western Test Range (AFWTR)
Object type
Payload
Rocket body
Debris
Shape & HBR
Unknown shape, 14.5 m
Radar Cross Section
Large (>1 m²)

Expand to show TLE details & history
Last TLE update: 9 hours ago

TLE from 9 hours ago
0 STARLINK-37482
1 68850U 26094M   26171.46296777  .00012903  00000-0  40122-3 0  9990
2 68850  97.2835 185.9105 0001389 112.5349 247.6041 15.33452539  8550
Epoch: 2026-06-20T11:06Z
TLE epoch observation values (Epoch: 2026-06-20T11:06:40.415Z)
Latitude
-0°
Longitude
110.56487°
Altitude
468.995 km
Speed
7.631 km/s
True Right ascension
12h 23m 38s
True Declination
0° 00' 00"
Sunlit
Object was in daylight at epoch
Visualization orbit readout
Latitude
Unknown
Longitude
Unknown
Altitude
Unknown
Speed
Unknown
Apparent Right ascension
Unknown
Apparent Declination
Unknown
Sunlit
N/A
Visualization observer readout
Local Sidereal Time
07:16:50
Azimuth
Unknown
Elevation
Unknown
Doppler factor
Unknown
Orbital elements
Apogee altitude
463.414 km
Perigee altitude
461.513 km
Semi-major axis
6,840.6 km
Eccentricity
0.00014
Inclination
97.2835°
RAAN
185.9105°
Arg. of periapsis
112.5349°
True anomaly
247.58938°
Mean anomaly
247.6041°
Eccentric anomaly
247.59674°
Mean motion
3.83621 °/min
Orbital period
93.84 mins
BSTAR
0.00040122
Loading maneuver chart data...
Computing Atmospheric mass density...
Loading historical data...
Loading historical data...
Loading historical data...
Loading historical data...
Loading historical data...
Loading historical data...
Loading historical data...

Documentation

Showing up to 5 results
|